Wind_Speed
2 1 9 11 10 15 13 11 14 20 22 20 25 20 18 15 21 19 18 19 21 17 16 8 6 4 23 21 25 32 35 36 31 30 28 26 30 33 34 35 35 34 34 34
2 9 14 10 10 10 11 15 19 20 19 14 19 24 20 19 23 21 23 22 20 11 4 9 14 16 17 8 14 19 27 30 32 31 29 20 25 23 28 33 35 33 33 34
5 9 6 12 13 12 15 12 19 22 22 18 16 21 17 23 17 20 21 21 1 3 7 7 11 16 20 19 14 5 22 31 32 30 26 17 20 17 20 25 35 36 35 34
7 5 5 6 9 9 12 13 16 19 13 9 2 13 19 16 20 11 10 12 10 10 11 10 11 14 19 21 17 11 14 20 24 28 25 27 24 19 26 25 28 34 37 35
7 4 5 6 7 5 11 11 13 18 16 13 17 6 6 11 9 9 9 13 13 13 13 12 11 14 18 23 20 14 12 12 12 18 25 27 23 23 22 26 24 29 35 37
12 5 5 5 4 6 9 8 14 11 2 5 15 7 3 7 8 8 9 13 14 13 13 13 16 17 21 23 25 20 13 13 10 6 10 19 27 23 22 27 28 30 33 37
12 3 3 3 5 2 3 3 4 3 1 5 5 4 7 13 12 12 10 13 14 13 13 13 14 14 19 22 23 20 17 17 13 8 3 5 10 23 29 30 29 29 29 30
6 8 3 5 6 3 6 5 3 5 3 6 3 4 5 10 13 14 14 13 15 14 12 13 13 15 18 20 22 21 21 22 20 13 10 7 8 12 19 29 30 32 30 31
6 6 5 10 10 5 1 3 5 5 8 7 5 3 6 14 16 15 14 13 14 13 11 13 13 17 19 22 23 21 20 19 17 15 14 13 12 15 20 21 30 29 30 32
5 10 5 5 2 5 5 1 2 2 5 4 4 4 5 13 14 14 14 16 14 11 9 12 12 19 24 26 23 23 22 19 19 19 20 15 14 11 18 21 27 32 32 32
9 6 8 7 4 4 2 3 3 3 2 2 3 3 7 10 11 12 12 11 11 9 7 12 13 20 23 26 26 26 29 28 29 29 26 24 19 14 8 18 20 27 29 30
2 5 6 12 18 5 3 4 4 3 2 2 2 3 5 10 9 8 10 11 9 9 8 14 16 23 26 27 23 27 30 32 30 27 25 25 24 20 15 8 6 22 28 29
4 4 6 7 1 2 3 4 8 7 4 4 3 3 6 9 8 9 12 12 11 12 15 15 15 18 21 24 29 30 32 31 30 28 28 27 28 28 24 18 14 6 17 24
7 3 5 5 5 7 7 9 2 1 3 4 7 9 10 11 11 10 13 12 15 17 22 26 22 17 26 29 26 33 30 30 28 29 30 29 28 27 26 24 20 14 8 5
3 3 3 7 9 11 21 16 14 15 9 6 6 9 9 10 11 11 12 15 17 19 20 18 17 16 25 29 27 27 30 31 29 29 29 29 28 28 29 30 27 22 16 12
1 3 3 3 3 5 17 21 18 13 12 11 11 8 7 7 8 13 14 16 17 18 17 18 16 19 21 25 23 26 29 30 28 29 30 30 31 32 33 33 31 29 26 22
3 3 3 1 6 9 4 10 14 11 18 5 5 4 5 9 14 15 13 16 17 16 15 14 14 18 22 25 26 26 26 26 28 28 29 31 30 30 32 32 32 33 31 28
3 4 2 2 1 4 2 7 6 17 14 11 10 7 9 11 11 12 13 13 15 15 14 12 17 21 25 26 29 26 25 26 26 27 28 30 31 31 31 31 31 31 31 31
11 3 3 1 2 3 2 7 6 6 8 12 6 2 5 7 5 13 12 11 10 9 12 14 17 19 21 23 23 23 27 27 25 27 27 27 26 28 32 32 31 29 30 33
5 2 3 1 1 2 4 11 7 6 4 10 9 8 8 0 4 3 9 8 11 15 16 16 18 20 21 23 22 23 26 26 27 27 28 28 27 28 27 29 29 28 29 29
3 2 4 4 3 3 8 10 5 2 1 7 8 8 11 6 5 5 6 10 14 15 17 17 19 20 21 22 19 22 23 27 27 28 28 29 30 28 28 27 28 28 28 27
3 3 3 2 3 1 12 3 3 5 5 6 7 8 9 9 7 6 6 7 13 14 16 17 16 17 21 24 21 21 25 22 27 25 27 27 28 30 31 31 31 30 27 25
3 3 2 5 2 4 6 10 9 5 5 3 5 7 8 6 4 5 5 6 11 14 16 18 19 18 23 24 24 22 23 23 19 25 25 26 26 27 26 26 26 26 28 23
2 3 3 1 3 5 6 7 7 6 5 4 6 7 7 7 5 5 5 8 11 16 15 15 15 16 18 22 22 19 19 22 19 19 23 25 25 25 25 24 25 26 25 21
2 2 3 3 5 6 6 5 6 7 9 10 11 9 7 7 6 6 7 9 10 11 13 14 14 14 18 22 24 24 23 20 19 18 18 19 23 22 21 23 24 24 28 26
2 2 0 1 5 2 4 3 5 6 6 6 7 7 10 9 6 7 8 9 11 11 12 13 14 14 17 21 24 24 23 21 16 16 16 19 17 19 19 20 19 17 18 22
Wind_Direction
283 141 250 232 226 254 278 273 263 269 275 289 286 274 280 273 277 274 273 266 269 263 277 14 26 234 220 215 210 205 199 204 193 192 193 195 200 199 209 209 216 216 214 215
332 242 265 257 241 242 261 268 273 288 290 288 287 289 279 259 260 265 263 259 258 240 62 49 26 39 58 60 206 198 202 200 196 194 199 199 202 207 204 207 210 217 217 216
208 248 294 289 280 266 260 265 278 270 288 284 281 278 273 259 274 272 247 247 314 145 76 46 42 19 35 35 34 190 200 209 205 199 190 196 190 199 192 204 211 214 219 219
248 267 234 259 257 233 275 251 260 271 287 283 32 294 281 289 275 285 44 51 53 46 48 31 33 21 22 20 34 58 144 191 198 201 192 199 195 194 205 206 206 209 215 219
267 276 293 285 238 145 241 299 266 270 265 283 277 251 284 271 272 65 42 46 48 37 38 28 23 24 24 27 29 37 76 126 160 185 202 201 197 202 204 203 196 204 214 220
252 261 242 229 292 205 263 294 276 262 231 255 270 201 325 2 18 63 51 48 44 42 36 32 25 22 28 26 31 20 36 65 75 161 184 200 200 201 195 194 198 201 210 217
305 270 262 199 297 276 150 313 317 317 269 251 326 158 28 15 26 33 42 59 49 40 38 32 27 23 31 27 25 17 16 37 43 33 332 222 199 209 208 203 203 199 203 209
331 322 200 173 207 250 205 179 237 282 256 267 316 322 30 23 19 22 29 47 54 45 36 36 34 33 32 28 26 18 16 24 25 16 349 308 251 234 223 216 214 213 206 210
307 265 310 293 256 144 319 195 169 266 262 273 103 56 89 25 25 20 19 19 36 33 34 35 35 35 33 30 25 17 19 25 20 15 359 341 308 262 241 232 230 228 228 228
288 291 253 303 299 245 178 279 300 242 320 322 52 59 13 20 14 17 14 24 20 13 19 43 36 34 31 26 20 21 23 23 20 19 15 360 349 312 265 239 239 234 234 231
264 238 291 340 223 216 300 264 198 260 208 310 338 67 16 34 22 11 16 9 10 355 342 48 43 39 37 30 17 18 20 17 15 13 14 12 9 8 326 245 256 242 244 242
285 290 281 265 289 182 191 247 225 248 277 94 77 54 13 48 20 13 21 16 6 354 3 47 37 26 27 27 16 23 20 20 13 9 16 14 16 17 16 14 327 245 249 246
346 274 298 305 17 12 304 278 268 277 178 183 118 89 51 47 32 30 24 16 14 8 23 45 47 33 24 25 19 20 21 17 13 13 17 17 16 18 16 13 5 335 248 246
302 292 355 0 350 333 342 328 17 162 41 66 64 95 45 30 22 29 32 23 17 15 19 27 24 12 19 20 16 18 13 17 14 20 21 20 16 17 20 22 18 13 2 283
341 277 243 88 50 19 34 36 57 65 51 52 87 75 45 29 26 23 33 28 27 27 25 26 24 16 17 15 13 11 14 15 16 21 24 19 21 23 27 28 30 28 25 22
24 278 275 250 295 8 38 30 40 62 87 87 87 78 47 35 33 35 34 30 31 29 26 22 18 22 19 18 10 13 11 10 17 24 22 18 22 26 27 29 32 40 40 34
300 297 289 292 347 317 20 11 32 49 37 41 72 64 72 50 41 28 36 32 30 27 20 17 16 19 19 20 17 17 11 12 19 22 23 23 22 25 28 31 31 37 42 46
270 274 254 268 131 32 256 5 35 70 42 52 87 95 98 92 68 43 43 36 30 23 14 11 12 16 13 17 20 20 19 20 21 23 21 22 27 27 27 31 31 33 40 42
211 285 284 279 63 119 17 17 347 356 51 26 39 84 146 154 95 45 46 51 35 21 13 14 16 18 15 16 20 23 27 27 23 22 22 23 25 30 36 30 26 29 39 41
133 35 276 76 116 155 50 328 325 304 67 27 32 28 30 24 69 37 28 37 35 27 21 15 17 25 22 12 17 27 30 29 24 19 24 31 34 38 38 43 42 34 38 42
352 14 348 359 93 97 353 319 310 302 6 41 47 41 49 80 78 88 52 36 32 22 17 19 24 26 20 18 22 26 29 27 26 33 35 37 42 40 48 50 50 49 47 43
54 320 10 342 55 25 355 6 56 99 76 81 72 71 77 88 83 70 52 38 36 23 19 20 26 25 22 24 23 23 23 17 27 31 39 36 39 44 46 48 49 49 44 41
58 49 21 6 74 49 22 61 57 54 91 90 103 94 100 86 66 54 36 35 31 26 20 21 25 22 23 24 24 21 12 21 20 28 30 36 36 36 37 37 35 34 38 35
92 37 88 185 95 76 63 42 59 61 76 46 97 102 104 106 90 77 54 39 31 25 20 19 25 25 18 24 27 24 18 20 24 28 28 32 36 38 37 39 40 39 34 34
5 343 100 77 111 103 77 57 97 79 77 72 60 68 85 96 73 69 53 44 37 31 24 29 27 24 16 24 30 30 27 17 26 29 29 28 38 42 47 51 44 45 45 45
10 29 35 121 138 95 106 90 109 91 80 80 92 70 56 79 85 79 68 58 43 31 27 31 31 25 21 27 28 27 29 29 25 27 26 33 35 41 42 45 49 47 48 48
Height
781 791 793 788 786 776 774 776 778 759 747 750 738 739 733 728 716 715 712 707 699 694 685 685 681 680 679 682 687 691 696 703 710 716 722 726 727 728 735 738 746 751 754 758
789 789 772 771 774 778 779 778 767 753 744 747 739 729 725 716 706 701 701 697 689 687 688 688 687 682 679 681 684 689 693 698 704 709 715 722 724 728 730 734 739 747 751 754
786 767 762 766 769 770 765 770 762 759 745 741 740 728 714 697 697 688 682 679 685 686 691 691 689 688 682 682 684 685 688 693 699 704 709 717 722 727 730 732 734 739 746 751
777 763 763 764 765 765 772 749 752 751 750 754 734 733 710 694 684 683 695 697 697 697 697 701 694 693 688 687 685 686 685 691 697 701 705 710 714 717 719 724 729 733 739 745
770 762 762 762 755 754 754 743 746 743 743 742 726 741 713 683 678 699 705 704 702 705 704 708 705 703 697 691 690 692 691 690 692 697 702 706 709 713 716 721 726 730 734 739
770 758 757 753 746 746 742 748 742 736 745 748 714 728 707 699 695 701 707 710 707 709 710 711 709 705 700 699 694 697 697 692 692 696 699 702 704 708 712 716 720 723 727 731
762 752 751 748 750 740 747 749 759 748 739 729 706 725 722 721 716 716 712 713 716 716 716 717 715 711 707 706 703 704 703 697 696 696 698 700 701 704 706 709 712 714 718 723
773 762 745 742 743 738 747 743 747 735 729 707 703 710 731 738 735 729 726 721 721 723 724 724 723 720 717 714 710 710 705 697 696 698 700 701 699 700 702 704 706 708 710 714
782 768 739 737 731 736 734 745 733 738 724 717 703 727 731 737 740 739 739 733 730 732 732 730 727 723 721 718 716 714 711 707 706 705 702 699 698 697 698 700 702 706 708 710
787 762 741 732 730 731 730 728 735 735 720 716 708 728 738 744 746 750 748 744 741 743 742 735 731 725 721 719 720 719 715 713 708 705 703 700 699 696 694 697 697 700 703 706
779 774 746 738 729 731 734 733 731 728 725 720 723 741 754 756 758 758 757 755 755 753 750 737 733 732 731 726 726 722 714 711 705 703 701 700 697 693 692 693 695 695 699 701
773 766 762 736 717 722 726 725 722 724 721 719 726 756 766 764 765 765 767 764 759 759 752 738 736 736 730 732 738 727 719 713 712 710 707 704 701 696 692 691 691 692 693 696
777 763 753 734 726 725 726 719 714 717 719 722 726 754 767 768 770 770 769 767 765 759 751 747 743 742 748 740 735 730 725 723 721 717 711 709 705 700 697 692 690 690 691 692
773 765 760 763 756 756 741 721 713 715 723 738 748 763 772 774 776 774 774 775 768 759 746 731 737 750 746 746 746 733 738 732 729 723 716 713 711 706 702 697 693 690 690 691
773 767 767 764 765 760 755 741 732 732 740 746 768 773 782 784 783 782 781 776 774 769 763 764 765 762 758 755 754 753 745 740 736 730 726 723 718 712 706 701 699 694 692 692
772 768 765 754 754 754 765 761 755 752 756 766 772 782 790 792 790 784 784 784 782 780 780 777 779 777 774 770 768 760 753 748 743 737 733 729 723 716 711 707 704 702 698 697
779 768 762 750 748 747 759 775 775 772 769 766 768 786 793 795 792 793 791 792 791 790 790 790 787 785 781 776 770 764 761 757 751 746 742 737 731 726 721 718 714 708 707 706
778 769 761 747 754 761 780 778 775 780 786 784 788 794 797 801 803 801 800 799 799 799 798 795 792 787 785 781 775 773 770 764 759 755 750 744 739 734 730 727 724 721 717 714
773 770 757 747 757 772 772 786 788 783 791 795 789 792 795 799 798 807 808 810 810 809 808 804 799 796 794 788 787 782 774 769 767 762 757 753 748 743 738 734 732 730 726 722
768 770 766 758 752 769 789 790 786 784 785 799 800 802 797 794 799 814 817 816 814 813 811 808 803 799 797 794 789 785 780 776 772 768 764 760 755 750 747 744 741 739 735 733
771 772 774 764 765 781 797 791 785 775 802 801 803 806 804 806 814 820 820 818 816 815 813 810 806 802 802 798 796 790 785 781 779 775 771 766 761 757 754 751 748 746 744 742
783 780 782 774 776 778 797 788 786 800 804 805 805 807 811 816 820 822 822 821 819 820 817 814 811 809 806 802 799 795 789 789 787 784 778 773 769 763 760 756 754 752 750 748
784 791 790 796 800 805 804 802 806 806 804 808 808 811 814 819 823 822 821 820 822 822 820 817 813 812 810 806 802 799 798 795 792 788 783 779 776 772 767 764 762 760 759 757
790 790 797 801 807 808 810 811 811 811 812 812 812 814 818 822 824 825 825 826 825 823 824 822 819 818 817 813 809 806 803 798 795 792 788 786 782 778 775 773 772 771 769 766
796 795 798 806 811 814 816 816 817 817 818 819 820 821 823 825 827 828 828 829 830 830 829 826 824 823 820 816 812 809 805 802 799 797 794 792 790 787 786 785 783 781 780 777
799 800 798 802 805 811 817 819 820 821 823 824 825 828 829 829 830 831 832 833 833 834 832 829 827 826 823 819 816 812 809 807 805 802 800 798 796 794 792 791 789 787 786 783